weather.gov     
National Weather Service

Regional Weather Roundup
NWS Homepage
This page is being discontinued on March 12, 2014.
The same data is available at this site. Please update your bookmarks.
Thank you, and we apologize for the inconvenience.
Please send an email to SR-SRH.Webmaster@noaa.gov with any concerns.


Current Version
Previous Version:    01  02  03  04  05  06  07  08  09  10  11  12  13  14  15  16  17  18  19  20  21  22  23  24  25  26  
[Printable]
520
ASUS41 KAKQ 181110
RWRAKQ

REGIONAL WEATHER ROUNDUP
NATIONAL WEATHER SERVICE WAKEFIELD VA
600 AM EST THU DEC 18 2014

Note: "fair" indicates few or no clouds below 12,000 feet with no
significant weather and/or obstructions to visibility. * = Denotes
station may not report precipitation (e.g., rain,snow,etc.),
thunder or fog.

VAZ042-051-052>054-056-181200-
NORTHERN VIRGINIA

CITY           SKY/WX    TMP DP  RH WIND       PRES   REMARKS
WASH NATIONAL  MOCLDY    39  18  42 NW8       30.14R
DULLES         PTCLDY    32  19  58 NW15      30.13R WCI  22
FORT BELVOIR   PTCLDY    35  19  53 W5        30.15R
QUANTICO       CLEAR     34  20  56 NW8       30.16R
FREDERICKSBRG* CLEAR     33  24  71 NW7       30.14R
STAFFORD*      CLEAR     28  20  70 NW8       30.19R
WARRENTON      CLEAR     32  26  77 NW7       30.14R
CULPEPER*      CLEAR     25  23  93 CALM      30.14R
MANASSAS*      CLOUDY    36  23  60 W8        30.14R
LEESBURG*      CLOUDY    34  23  64 NW12      30.14R
WINCHESTER     CLOUDY    34  16  47 NW16      30.13R WCI  23
FRONT ROYAL*   MOSUNNY   32  19  59 W3        30.12R
LURAY*         MOSUNNY   32  23  69 N6        30.13R
$$

VAZ048-049-060>072-079>083-181200-
CENTRAL AND SOUTH CENTRAL VIRGINIA

CITY           SKY/WX    TMP DP  RH WIND       PRES   REMARKS
RICHMOND       PTCLDY    32  24  72 NW5       30.14R
CHESTERFIELD*  SUNNY     27  14  59 N3        30.14R
PETERSBURG*    CLEAR     27  26  96 CALM      30.15R
HANOVER        PTCLDY    29  25  85 NW3       30.15R
TAPPAHANNOCK*  PTCLDY    33  21  60 NW3       30.14R
QUINTON*       MOSUNNY   30  25  81 CALM      30.14R
CHARLOTTSVILLE PTCLDY    29  21  72 W3        30.12R
GORDONSVILLE*  MOSUNNY   26  23  89 CALM      30.13R
ORANGE*        CLEAR     25  23  93 CALM      30.14S
LOUISA*        PTCLDY    27  21  80 CALM      30.11S
BUMPASS*       MOSUNNY   26  24  90 CALM      30.13R
FARMVILLE*     MOCLDY    30  24  80 CALM      30.13R
CREWE*         SUNNY     29  26  88 CALM      30.13R
FORT PICKETT*  SUNNY     29  25  86 CALM      30.13R
CHASE CITY*    SUNNY     37  28  70 NW3       30.14R
CLARKSVILLE*   SUNNY     36  27  69 NW6       30.14R
SOUTH HILL*    CLEAR     28  26  93 CALM      30.20R
LAWRENCEVILLE* SUNNY     30  28  94 CALM      30.14R
EMPORIA*       CLEAR     27  27 100 CALM      30.16R
$$

VAZ088>098-181200-
SOUTHEAST VIRGINIA

CITY           SKY/WX    TMP DP  RH WIND       PRES   REMARKS
NORFOLK        CLEAR     39  27  62 VRB5      30.11R
VIRGINIA BEACH CLEAR     37  27  67 N7        30.11R
NORFOLK NAVAL  CLEAR     40  26  57 NW12      30.13R
WEST POINT*    CLEAR     34  27  76 NW3       30.15R
SALUDA*        FAIR      36  25  64 NW9G16    30.12R
NEWPORT NEWS   CLEAR     38  25  59 NW8       30.12R
LANGLEY AFB    CLEAR     36  25  65 NW9       30.12R
FORT EUSTIS    CLEAR     37  25  61 N8        30.12R
WILLIAMSBURG*  CLEAR     36  28  75 N6        30.14R
HR EXEC AP*    SUNNY     34  27  75 N3        30.15R
FRANKLIN*      CLEAR     28  28 100 CALM      30.14R
WAKEFIELD      CLEAR     29  25  85 CALM      30.14R
$$

VAZ020-022-025-037-045-181200-
WEST CENTRAL AND SOUTHWEST VIRGINIA

CITY           SKY/WX    TMP DP  RH WIND       PRES   REMARKS
STAUNTON*      PTCLDY    26  19  73 NW3       30.13R
WAYNESBORO*    MOSUNNY   29  19  65 W5        30.11R
HOT SPRINGS VA PTCLDY    21  18  88 NW13G18   29.98R WCI   8
LYNCHBURG      MOCLDY    28  24  85 S3        30.15R
DANVILLE       CLEAR     34  24  67 NW5       30.16R
SOUTH BOSTON*  SUNNY     33  24  69 NW5       30.15R
MARTINSVILLE   CLEAR     25  25 100 CALM      30.17S
ROANOKE        PTCLDY    34  20  56 NW3       30.16R
BLACKSBURG     PTCLDY    28  21  74 W10       30.13F WCI  19
DUBLIN*        PTCLDY    31  25  78 NW13      30.12F WCI  21
MARION*        PTCLDY    28  25  86 SW9       30.14S
HILLSVILLE*    CLEAR     28  22  76 W9        30.08S
RICHLANDS*     CLOUDY    27  22  79 W3        30.13S
WISE*          CLOUDY    28  27  93 N3        30.15R
ABINGDON*      CLEAR     30  27  87 CALM      30.16R
$$

MDZ021>025-VAZ099-100-181200-
SOUTHERN MARYLAND AND THE DELMARVA PENINSULA

CITY           SKY/WX    TMP DP  RH WIND       PRES   REMARKS
PATUXENT RIVER PTCLDY    35  20  54 W12       30.12R
BAY BRIDGE APT   N/A     36  21  55 NW16G23   30.11R
LEONARDTOWN    CLEAR     34  21  60 W6        30.13R
DOVER          MOCLDY    37  22  54 W13       30.06R
GEORGETOWN     PTCLDY    36  21  54 NW5       30.08R
EASTON         PTCLDY    37  25  60 NW12      30.13R
CAMBRIDGE      CLEAR     37  23  56 NW12      30.10R
SALISBURY      CLEAR     37  22  54 W7        30.09R
OCEAN CITY     CLEAR     33  23  66 NW6       30.09R
WALLOPS ISLAND FAIR      32  25  75 NW6       30.10R
ACCOMACK*      CLEAR     37  25  60 N14G21    30.10R
$$

NCZ012>017-030>032-181200-
NORTH CENTRAL AND EASTERN NORTH CAROLINA

CITY           SKY/WX    TMP DP  RH WIND       PRES   REMARKS
ROANOKE RAPIDS SUNNY     32  30  93 CALM      30.14R
RALEIGH        PTCLDY    33  27  78 CALM      30.14R
ELIZABETH CITY CLEAR     39  29  67 NW6       30.13R
AHOSKIE*       CLEAR     30  28  94 CALM      30.15R
EDENTON*         N/A     34  32  91 N3        30.14R
CURRITUCK*     CLEAR     38  28  68 NW3       30.13R
KILL DEVIL HLS CLEAR     42  33  70 N9        30.09R
MANTEO         CLEAR     42  36  78 N12G17    30.11R
CAPE HATTERAS  CLEAR     45  40  82 N8        30.10R
TARBORO*       SUNNY     29  28  94 CALM      30.16R
GOLDSBORO      CLEAR     39  37  94 CALM      30.12R
WASHINGTON     CLEAR     35  31  85 N5        30.14R
GREENVILLE     CLEAR     34  32  93 N5        30.15R
NEW BERN       PTCLDY    41  32  70 NW3       30.13R
WILMINGTON     PTCLDY    38  36  92 NE5       30.11R
$$

VAZ048-181200-
ELSEWHERE

CITY           SKY/WX    TMP DP  RH WIND       PRES   REMARKS
HARRISBURG PA  MOCLDY    34  18  52 NW13G21   30.07R WCI  25
BALTIMORE      PTCLDY    34  18  52 NW15G25   30.11R WCI  24
ANNAPOLIS      PTCLDY    37  20  50 NW10      30.11R
ANDREWS AFB    PTCLDY    35  20  54 NW8       30.11R
PHILADELPHIA   PTCLDY    35  17  47 W10       30.05R
HENDERSON NC   CLEAR     34  25  70 NW3       30.14R
GREENSBORO     PTCLDY    38  24  57 N8        30.12R
ROCKY MOUNT    CLEAR     33  27  78 CALM      30.14R
$$

VAZ100-181200-
MARINE

STATION/POSITION TIME  TEMP    WIND        PRES    WAVE   SWELL
                       AIR SEA DIR/SP/G            HT/PER HT/PER
                 (UTC) (F)     (DEG/KT/KT) (MB)    (FT/S) (FT/S)
CAPE MAY NJ      1100   38 44  290/  4/ 18 1017.3R
LEWES DE         1100   37 43  300/ 14/ 16 1018.1R
15NM E FENWICK I 1100   39 47              1017.3R   5/ 5
OCEAN-CITY-INLET 1100   36 46  320/  9/ 11 1018.3R
WACHAPREAGUE VA  1100   38 45  330/  3/  9 1019.1R
THOMAS POINT MD  1100   37 42  320/ 18/ 20 1020.8R
GOOSES REEF MD   1100   38     VRB 12/ 14  1018.8R   1/ 2
COVE POINT MD    1100   35     320/  9/ 13 1019.5R
SOLOMONS ISLAND  1100      44                N/A
BISHOPS HEAD MD  1100   37 40  320/ 12/ 18 1019.0R
PINEY POINT MD   1100          340/ 22/ 25   N/A
POTOMAC MD       1100   38 44  350/ 14/ 17 1019.2R   2/ 3
CAMBRIDGE MD     1100   38 41  310/ 15/ 20 1019.0R
LEWISETTA VA     1100   38 43  330/ 11/ 15 1019.8R
RAPPAHANNOCK LGT 1100          330/ 24/ 27 1019.7F
STINGRAY PT      1100   38 45  340/ 14/ 17 1020.2R   2/ 3
YORK RVR RNG VA  1100   38     350/ 16/ 19 1019.3R
YORKTOWN VA      1100   38 46  310/ 14/ 16 1019.3F
JAMESTOWN VA     1100   36 46  350/  6/  8   N/A     1
DOMINION TERM VA 1100   39     340/  4/  5 1019.7R
KIPTOPEKE VA     1100      50  360/ 17/ 22   N/A
CHES BAY BRIDGE  1100   41 46  320/ 13/ 16 1019.1R
CAPE HENRY VA    1100   41     330/ 17/ 18 1018.3R
CHESAPEAKE LGHT  1000   41     340/ 18/ 19 1019.3R
WILLOUBY STN VA  1100   39     330/  9/ 11 1020.0R
S CRANEY ISL VA  1100          350/  9/ 12 1019.6R
CAPE HENRY BUOY  1100      48                N/A     3/ 4
1ST LANDING BUOY 1100   42 47  350/ 17/ 23 1019.2R   3/ 3
CAPE CHARLES BUO 1100      48                N/A     3/ 4   2/ 8
64NM E OF VA BCH 1100   45 54  340/ 21/ 25 1017.8R   5/ 6   2/10
DUCK PIER NC     1100   43 49  360/ 18/ 21 1018.3R
44100 DUCK FRF   1100      51                N/A     4/ 5
44056 DUCK FRF   1100      49                N/A     3/ 4
OREGON INLET NC  1100   44 51  350/ 10/ 15 1018.9R
HATTERAS NC      1100   47 54   10/ 15/ 18 1019.3R
DIAMOND SHLS NC  1100   51                 1018.6R   3/ 4
CAPE LOOKOUT NC  1000   49     340/ 12/ 15 1018.7R
$$




U.S. Dept. of Commerce
NOAA National Weather Service
1325 East West Highway
Silver Spring, MD 20910
E-mail: w-nws.webmaster@noaa.gov
Page last modified: May 16, 2007
NATIONAL WEATHER SERVICE: for Safety, for Work, for Fun - FOR LIFE